Regional Weather Roundup
Issued by NWS

Home | Current Version | Previous Version | Text Only | Print | Product List | Glossary Off
Versions: 1 2 3 4 5 6 7 8 9 10 11 12 13 14 15 16 17 18 19 20 21 22 23 24 25 26 27 28 29 30 31 32 33 34 35 36 37 38 39 40 41 42 43 44 45 46 47 48 49 50

000
ASUS45 KABQ 011901
RWRNM
NEW MEXICO REGIONAL WEATHER ROUNDUP
NATIONAL WEATHER SERVICE ALBUQUERQUE NM
1200 PM MST THU DEC 01 2016

NOTE: "FAIR" MEANS FEW OR NO CLOUDS BELOW 12,000 FEET AGL WITH NO
       SIGNIFICANT WEATHER OR OBSTRUCTIONS TO VISION.

      THIS PRODUCT IS RELEASED AS TWO VERSIONS.  ONE VERSION NEAR
      THE TOP OF THE HOUR CONTAINING PRELIMINARY DATA FROM ALBUQUERQUE
      AND OTHER STATIONS.  A FINAL VERSION WITH ADDITIONAL DATA IS
      ISSUED ABOUT 10 MINUTES AFTER THE HOUR.

NMZ501-503-504-510>518-012000-
NORTHWEST PLATEAU/NORTHCENTRAL MOUNTAINS

CITY           SKY/WX    TMP DP  RH WIND       PRES   REMARKS
FARMINGTON     FAIR      34  16  47 CALM      30.00F
LOS ALAMOS     FAIR      32  11  42 E5        29.97F WCI  27
SANTA FE       FAIR      38   9  30 N9        29.97F WCI  31
TAOS           FAIR      30   9  40 CALM      29.97F
ANGEL FIRE     FAIR      31   8  37 W12G17    29.92F WCI  22

$$
NMZ402-403-502-505>509-012000-
WESTCENTRAL MOUNTAINS/SOUTHWEST MOUNTAINS

CITY           SKY/WX    TMP DP  RH WIND       PRES   REMARKS
GALLUP         FAIR      34  15  46 CALM      29.98F
GRANTS         FAIR      32  17  52 CALM      30.00F

$$
NMZ407-409-411-412-012000-
SOUTHERN DESERTS

CITY           SKY/WX    TMP DP  RH WIND       PRES   REMARKS
DEMING         FAIR      52  19  27 VRB3      29.99F
LAS CRUCES     FAIR      49  15  25 CALM      29.99F
HOLLOMAN AFB   FAIR      48  12  23 CALM      30.02F
T OR C         FAIR      44  11  26 VRB3      29.99F

$$
NMZ519>523-012000-
CENTRAL VALLEYS/CENTRAL HIGHLANDS

CITY           SKY/WX    TMP DP  RH WIND       PRES   REMARKS
ALBUQUERQUE    PTSUNNY   38  12  34 SW3       30.01F
DOUBLE EAGLE   PTSUNNY   37  16  41 SE6       30.01F WCI  33
MORIARTY ARPT  FAIR      43   6  21 NW10      29.98F
CLINES CORNERS FAIR      38   8  29 NW15      29.96F WCI  29
BELEN          FAIR      40  13  33 E3        30.02F
SOCORRO        FAIR      41  10  28 CALM      30.01F

$$
NMZ524>526-539-540-012000-
SOUTHCENTRAL MOUNTAINS

CITY           SKY/WX    TMP DP  RH WIND       PRES   REMARKS
RUIDOSO        FAIR      46   9  21 N8        29.98F

$$
NMZ527>531-012000-
NORTHEAST HIGHLANDS/NORTHEAST PLAINS

CITY           SKY/WX    TMP DP  RH WIND       PRES   REMARKS
LAS VEGAS      FAIR      40   5  23 SW7       29.91F
RATON          FAIR      36  13  38 SW8       29.91F WCI  30
CLAYTON        FAIR      42  17  36 VRB5      29.95F

$$
NMZ532>537-012000-
EASTCENTRAL PLAINS

CITY           SKY/WX    TMP DP  RH WIND       PRES   REMARKS
TUCUMCARI      FAIR      45  16  31 VRB3      29.95F
CANNON AFB     FAIR      49  11  22 W14       29.94F
CLOVIS AIRPORT FAIR      48  16  27 W9G20     29.95F

$$
NMZ028-029-538-012000-
SOUTHEAST PLAINS

CITY           SKY/WX    TMP DP  RH WIND       PRES   REMARKS
ROSWELL        FAIR      50  13  22 CALM      29.96F
ARTESIA        FAIR      50  14  23 E5        29.97F
CARLSBAD       FAIR      51  17  26 VRB3      29.96F
HOBBS          SUNNY     55  16  21 S8        29.99F


$$




USA.gov is the U.S. government's official web portal to all federal, state and local government web resources and services.